Time,TemperatureF,DewpointF,PressureIn,WindDirection,WindDirectionDegrees,WindSpeedMPH,WindSpeedGustMPH,Humidity,HourlyPrecipIn,Conditions,Clouds,dailyrainin,SoftwareType,DateUTC
2013-02-23 00:00:00,54.0,52.0,30.05,East,82,0.0,0.0,93,0.00,,---,0.00,VWS V14.01,2013-02-23 05:00:00,
2013-02-23 00:05:00,54.2,52.2,30.05,East,86,6.0,6.0,93,0.00,,---,0.00,VWS V14.01,2013-02-23 05:05:00,
2013-02-23 00:10:00,54.6,52.6,30.04,East,86,0.0,6.0,93,0.00,,---,0.00,VWS V14.01,2013-02-23 05:10:00,
2013-02-23 00:15:00,54.7,52.7,30.04,East,86,0.0,0.0,93,0.00,,---,0.00,VWS V14.01,2013-02-23 05:15:00,
2013-02-23 00:20:00,55.1,53.1,30.04,East,87,5.0,7.0,93,0.00,,---,0.00,VWS V14.01,2013-02-23 05:20:00,
2013-02-23 00:25:00,55.5,53.5,30.03,East,87,5.0,5.0,93,0.00,,---,0.00,VWS V14.01,2013-02-23 05:25:00,
2013-02-23 00:30:00,55.8,53.8,30.03,East,87,4.0,6.0,93,0.00,,---,0.00,VWS V14.01,2013-02-23 05:30:00,
2013-02-23 00:35:00,55.9,53.9,30.03,East,87,5.0,7.0,93,0.00,,---,0.00,VWS V14.01,2013-02-23 05:35:00,
2013-02-23 00:40:00,56.1,54.1,30.03,East,88,6.0,9.0,93,0.00,,---,0.00,VWS V14.01,2013-02-23 05:40:00,
2013-02-23 00:45:00,56.6,54.6,30.03,East,89,6.0,7.0,93,0.00,,---,0.00,VWS V14.01,2013-02-23 05:45:00,
2013-02-23 00:50:00,56.7,54.7,30.03,East,92,5.0,9.0,93,0.00,,---,0.00,VWS V14.01,2013-02-23 05:50:00,
2013-02-23 00:55:00,56.9,54.9,30.02,East,94,8.0,10.0,93,0.00,,---,0.00,VWS V14.01,2013-02-23 05:55:00,
2013-02-23 01:00:00,57.1,55.1,30.02,East,94,0.0,9.0,93,0.00,,---,0.00,VWS V14.01,2013-02-23 06:00:00,
2013-02-23 01:05:00,57.5,55.5,30.02,East,93,0.0,8.0,93,0.01,,---,0.01,VWS V14.01,2013-02-23 06:05:00,
2013-02-23 01:10:00,57.8,55.8,30.01,East,91,4.0,6.0,93,0.01,,---,0.01,VWS V14.01,2013-02-23 06:10:00,
2013-02-23 01:15:00,57.4,55.1,30.01,East,88,3.0,3.0,92,0.01,,---,0.01,VWS V14.01,2013-02-23 06:15:00,
2013-02-23 01:20:00,56.6,54.3,30.01,East,88,0.0,4.0,92,0.01,,---,0.01,VWS V14.01,2013-02-23 06:20:00,
2013-02-23 01:25:00,56.2,53.9,30.01,East,88,0.0,0.0,92,0.02,,---,0.02,VWS V14.01,2013-02-23 06:25:00,
2013-02-23 01:30:00,56.4,54.4,30.01,East,88,0.0,0.0,93,0.02,,---,0.02,VWS V14.01,2013-02-23 06:30:00,
2013-02-23 01:35:00,56.4,54.1,30.01,East,88,4.0,4.0,92,0.02,,---,0.02,VWS V14.01,2013-02-23 06:35:00,
2013-02-23 01:40:00,56.5,54.5,29.99,East,87,6.0,6.0,93,0.02,,---,0.02,VWS V14.01,2013-02-23 06:40:00,
2013-02-23 01:45:00,57.8,55.8,29.99,SE,132,2.0,10.0,93,0.03,,---,0.03,VWS V14.01,2013-02-23 06:45:00,
2013-02-23 01:50:00,58.6,56.6,29.99,South,173,10.0,14.0,93,0.06,,---,0.06,VWS V14.01,2013-02-23 06:50:00,
2013-02-23 01:55:00,59.0,57.0,30.00,SSE,150,13.0,14.0,93,0.08,,---,0.08,VWS V14.01,2013-02-23 06:55:00,
2013-02-23 02:00:00,59.2,57.2,30.00,SSE,150,14.0,21.0,93,0.09,,---,0.09,VWS V14.01,2013-02-23 07:00:00,
2013-02-23 02:05:00,59.7,57.4,30.00,SE,140,12.0,20.0,92,0.10,,---,0.10,VWS V14.01,2013-02-23 07:05:00,
2013-02-23 02:10:00,59.1,56.8,29.98,SE,139,11.0,15.0,92,0.10,,---,0.11,VWS V14.01,2013-02-23 07:10:00,
2013-02-23 02:15:00,59.4,57.4,29.98,SSE,163,12.0,17.0,93,0.11,,---,0.12,VWS V14.01,2013-02-23 07:15:00,
2013-02-23 02:20:00,59.2,57.2,29.98,SSE,148,16.0,19.0,93,0.11,,---,0.12,VWS V14.01,2013-02-23 07:20:00,
2013-02-23 02:25:00,59.4,57.4,29.97,SE,140,13.0,15.0,93,0.11,,---,0.12,VWS V14.01,2013-02-23 07:25:00,
2013-02-23 02:30:00,58.5,55.9,29.97,SE,142,15.0,15.0,91,0.10,,---,0.12,VWS V14.01,2013-02-23 07:30:00,
2013-02-23 02:35:00,58.3,56.0,29.97,SE,139,10.0,15.0,92,0.10,,---,0.12,VWS V14.01,2013-02-23 07:35:00,
2013-02-23 02:40:00,57.5,55.2,29.96,SE,134,12.0,13.0,92,0.10,,---,0.12,VWS V14.01,2013-02-23 07:40:00,
2013-02-23 02:45:00,57.3,55.3,29.96,SE,136,11.0,14.0,93,0.10,,---,0.12,VWS V14.01,2013-02-23 07:45:00,
2013-02-23 02:50:00,57.6,55.9,29.96,SE,138,13.0,15.0,94,0.09,,---,0.12,VWS V14.01,2013-02-23 07:50:00,
2013-02-23 02:55:00,57.4,55.4,29.95,SE,140,10.0,13.0,93,0.06,,---,0.13,VWS V14.01,2013-02-23 07:55:00,
2013-02-23 03:00:00,57.3,55.6,29.95,SE,140,7.0,11.0,94,0.05,,---,0.13,VWS V14.01,2013-02-23 08:00:00,
2013-02-23 03:05:00,57.2,55.5,29.95,SE,140,7.0,8.0,94,0.04,,---,0.13,VWS V14.01,2013-02-23 08:05:00,
2013-02-23 03:10:00,57.3,55.6,29.93,SSE,157,10.0,11.0,94,0.03,,---,0.13,VWS V14.01,2013-02-23 08:10:00,
2013-02-23 03:15:00,57.9,56.2,29.93,South,169,12.0,14.0,94,0.03,,---,0.14,VWS V14.01,2013-02-23 08:15:00,
2013-02-23 03:20:00,58.2,56.5,29.93,South,175,18.0,18.0,94,0.02,,---,0.14,VWS V14.01,2013-02-23 08:20:00,
2013-02-23 03:25:00,58.5,56.8,29.92,South,172,14.0,18.0,94,0.03,,---,0.15,VWS V14.01,2013-02-23 08:25:00,
2013-02-23 03:30:00,58.2,56.5,29.92,South,175,16.0,17.0,94,0.04,,---,0.16,VWS V14.01,2013-02-23 08:30:00,
2013-02-23 03:35:00,58.3,56.9,29.92,SSE,165,17.0,18.0,95,0.04,,---,0.16,VWS V14.01,2013-02-23 08:35:00,
2013-02-23 03:40:00,58.7,57.3,29.91,South,170,18.0,21.0,95,0.04,,---,0.16,VWS V14.01,2013-02-23 08:40:00,
2013-02-23 03:45:00,58.6,57.2,29.91,SSE,163,19.0,20.0,95,0.04,,---,0.16,VWS V14.01,2013-02-23 08:45:00,
2013-02-23 03:50:00,58.1,56.7,29.91,SSE,163,18.0,19.0,95,0.05,,---,0.17,VWS V14.01,2013-02-23 08:50:00,
2013-02-23 03:55:00,58.1,56.7,29.90,SSE,165,18.0,20.0,95,0.05,,---,0.17,VWS V14.01,2013-02-23 08:55:00,
2013-02-23 04:00:00,58.1,56.7,29.90,SSE,166,17.0,19.0,95,0.04,,---,0.17,VWS V14.01,2013-02-23 09:00:00,
2013-02-23 04:05:00,58.3,56.9,29.90,SSE,167,17.0,19.0,95,0.04,,---,0.17,VWS V14.01,2013-02-23 09:05:00,
2013-02-23 04:10:00,58.1,56.7,29.91,SSE,165,18.0,20.0,95,0.04,,---,0.17,VWS V14.01,2013-02-23 09:10:00,
2013-02-23 04:15:00,59.4,58.3,29.91,SSE,158,16.0,22.0,96,0.03,,---,0.17,VWS V14.01,2013-02-23 09:15:00,
2013-02-23 04:20:00,58.6,56.9,29.91,SSE,153,17.0,18.0,94,0.03,,---,0.17,VWS V14.01,2013-02-23 09:20:00,
2013-02-23 04:25:00,59.5,58.4,29.90,SSE,160,19.0,22.0,96,0.02,,---,0.17,VWS V14.01,2013-02-23 09:25:00,
2013-02-23 04:30:00,60.3,59.2,29.90,South,186,16.0,21.0,96,0.02,,---,0.17,VWS V14.01,2013-02-23 09:30:00,
2013-02-23 04:35:00,60.0,58.6,29.90,South,171,11.0,18.0,95,0.01,,---,0.17,VWS V14.01,2013-02-23 09:35:00,
2013-02-23 04:40:00,59.3,57.9,29.90,SSE,164,12.0,15.0,95,0.02,,---,0.18,VWS V14.01,2013-02-23 09:40:00,
2013-02-23 04:45:00,58.5,57.1,29.90,South,169,10.0,11.0,95,0.02,,---,0.18,VWS V14.01,2013-02-23 09:45:00,
2013-02-23 04:50:00,58.0,56.9,29.90,South,169,10.0,11.0,96,0.02,,---,0.18,VWS V14.01,2013-02-23 09:50:00,
2013-02-23 04:55:00,57.8,56.7,29.91,South,180,7.0,11.0,96,0.02,,---,0.19,VWS V14.01,2013-02-23 09:55:00,
2013-02-23 05:00:00,58.2,57.1,29.91,South,187,12.0,13.0,96,0.02,,---,0.19,VWS V14.01,2013-02-23 10:00:00,
2013-02-23 05:05:00,59.6,58.5,29.91,South,169,10.0,14.0,96,0.03,,---,0.20,VWS V14.01,2013-02-23 10:05:00,
2013-02-23 05:10:00,59.7,58.6,29.90,South,187,9.0,11.0,96,0.03,,---,0.20,VWS V14.01,2013-02-23 10:10:00,
2013-02-23 05:15:00,59.5,58.1,29.90,South,175,11.0,13.0,95,0.03,,---,0.20,VWS V14.01,2013-02-23 10:15:00,
2013-02-23 05:20:00,59.2,58.1,29.90,South,173,10.0,12.0,96,0.03,,---,0.20,VWS V14.01,2013-02-23 10:20:00,
2013-02-23 05:25:00,59.1,58.0,29.90,South,173,7.0,11.0,96,0.04,,---,0.21,VWS V14.01,2013-02-23 10:25:00,
2013-02-23 05:30:00,58.4,57.0,29.90,South,173,6.0,7.0,95,0.05,,---,0.22,VWS V14.01,2013-02-23 10:30:00,
2013-02-23 05:35:00,58.8,57.7,29.90,South,175,9.0,10.0,96,0.05,,---,0.22,VWS V14.01,2013-02-23 10:35:00,
2013-02-23 05:40:00,59.7,58.8,29.90,South,181,9.0,12.0,97,0.05,,---,0.22,VWS V14.01,2013-02-23 10:40:00,
2013-02-23 05:45:00,59.5,58.4,29.90,South,184,7.0,11.0,96,0.05,,---,0.23,VWS V14.01,2013-02-23 10:45:00,
2013-02-23 05:50:00,58.8,57.4,29.90,South,184,7.0,11.0,95,0.05,,---,0.23,VWS V14.01,2013-02-23 10:50:00,
2013-02-23 05:55:00,58.1,56.7,29.90,South,183,7.0,9.0,95,0.05,,---,0.23,VWS V14.01,2013-02-23 10:55:00,
2013-02-23 06:00:00,58.3,57.2,29.90,South,182,7.0,11.0,96,0.04,,---,0.23,VWS V14.01,2013-02-23 11:00:00,
2013-02-23 06:05:00,58.4,57.3,29.90,South,184,5.0,10.0,96,0.04,,---,0.23,VWS V14.01,2013-02-23 11:05:00,
2013-02-23 06:10:00,58.4,57.3,29.90,South,184,5.0,7.0,96,0.03,,---,0.23,VWS V14.01,2013-02-23 11:10:00,
2013-02-23 06:15:00,58.3,57.2,29.90,South,186,10.0,10.0,96,0.03,,---,0.23,VWS V14.01,2013-02-23 11:15:00,
2013-02-23 06:20:00,58.1,57.0,29.90,SSW,192,9.0,11.0,96,0.04,,---,0.24,VWS V14.01,2013-02-23 11:20:00,
2013-02-23 06:25:00,58.0,56.9,29.90,SSW,201,11.0,12.0,96,0.03,,---,0.24,VWS V14.01,2013-02-23 11:25:00,
2013-02-23 06:30:00,58.0,56.9,29.90,SSW,206,11.0,14.0,96,0.03,,---,0.24,VWS V14.01,2013-02-23 11:30:00,
2013-02-23 06:35:00,57.7,56.6,29.90,SSW,207,11.0,12.0,96,0.02,,---,0.24,VWS V14.01,2013-02-23 11:35:00,
2013-02-23 06:40:00,57.6,56.5,29.90,SSW,207,10.0,12.0,96,0.02,,---,0.24,VWS V14.01,2013-02-23 11:40:00,
2013-02-23 06:45:00,57.2,56.1,29.90,SSW,207,10.0,11.0,96,0.02,,---,0.24,VWS V14.01,2013-02-23 11:45:00,
2013-02-23 06:50:00,57.0,55.9,29.90,SSW,207,10.0,11.0,96,0.02,,---,0.25,VWS V14.01,2013-02-23 11:50:00,
2013-02-23 06:55:00,56.9,55.8,29.90,SSW,207,10.0,11.0,96,0.02,,---,0.25,VWS V14.01,2013-02-23 11:55:00,
2013-02-23 07:00:00,56.8,55.7,29.90,SSW,207,11.0,11.0,96,0.02,,---,0.25,VWS V14.01,2013-02-23 12:00:00,
2013-02-23 07:05:00,56.8,55.7,29.90,SSW,207,11.0,11.0,96,0.02,,---,0.25,VWS V14.01,2013-02-23 12:05:00,
2013-02-23 07:10:00,56.8,55.7,29.91,SSW,207,10.0,11.0,96,0.02,,---,0.25,VWS V14.01,2013-02-23 12:10:00,
2013-02-23 07:15:00,56.7,55.6,29.91,SSW,213,12.0,12.0,96,0.03,,---,0.26,VWS V14.01,2013-02-23 12:15:00,
2013-02-23 07:20:00,56.7,55.6,29.91,SW,216,11.0,11.0,96,0.02,,---,0.26,VWS V14.01,2013-02-23 12:20:00,
2013-02-23 07:25:00,56.7,55.6,29.91,SW,232,11.0,11.0,96,0.02,,---,0.26,VWS V14.01,2013-02-23 12:25:00,
2013-02-23 07:30:00,55.4,54.3,29.91,West,277,11.0,14.0,96,0.02,,---,0.26,VWS V14.01,2013-02-23 12:30:00,
2013-02-23 07:35:00,58.1,57.3,29.91,WSW,247,12.0,19.0,97,0.03,,---,0.27,VWS V14.01,2013-02-23 12:35:00,
2013-02-23 07:40:00,56.5,55.4,29.92,WSW,254,12.0,12.0,96,0.03,,---,0.27,VWS V14.01,2013-02-23 12:40:00,
2013-02-23 07:45:00,56.5,55.4,29.92,WSW,252,12.0,13.0,96,0.03,,---,0.27,VWS V14.01,2013-02-23 12:45:00,
2013-02-23 07:50:00,55.1,54.0,29.92,WSW,252,6.0,9.0,96,0.04,,---,0.28,VWS V14.01,2013-02-23 12:50:00,
2013-02-23 07:55:00,55.0,53.9,29.92,WSW,252,6.0,7.0,96,0.03,,---,0.28,VWS V14.01,2013-02-23 12:55:00,
2013-02-23 08:00:00,54.8,53.7,29.92,WSW,252,4.0,6.0,96,0.03,,---,0.28,VWS V14.01,2013-02-23 13:00:00,
2013-02-23 08:05:00,54.6,53.5,29.92,WSW,252,3.0,4.0,96,0.03,,---,0.28,VWS V14.01,2013-02-23 13:05:00,
2013-02-23 08:10:00,54.4,53.3,29.92,WSW,252,2.0,4.0,96,0.03,,---,0.28,VWS V14.01,2013-02-23 13:10:00,
2013-02-23 08:15:00,54.3,53.5,29.92,WSW,252,1.0,2.0,97,0.02,,---,0.28,VWS V14.01,2013-02-23 13:15:00,
2013-02-23 08:20:00,54.4,53.6,29.92,WSW,252,2.0,2.0,97,0.03,,---,0.29,VWS V14.01,2013-02-23 13:20:00,
2013-02-23 08:25:00,54.3,53.5,29.92,WSW,252,1.0,3.0,97,0.03,,---,0.29,VWS V14.01,2013-02-23 13:25:00,
2013-02-23 08:30:00,54.2,53.4,29.92,WSW,252,3.0,3.0,97,0.04,,---,0.30,VWS V14.01,2013-02-23 13:30:00,
2013-02-23 08:35:00,54.0,52.9,29.92,WSW,252,0.0,3.0,96,0.03,,---,0.30,VWS V14.01,2013-02-23 13:35:00,
2013-02-23 08:40:00,53.9,53.1,29.92,WSW,252,0.0,0.0,97,0.04,,---,0.31,VWS V14.01,2013-02-23 13:40:00,
2013-02-23 08:45:00,54.5,53.7,29.92,WSW,257,4.0,5.0,97,0.04,,---,0.31,VWS V14.01,2013-02-23 13:45:00,
2013-02-23 08:50:00,56.3,55.5,29.92,WNW,302,6.0,13.0,97,0.05,,---,0.32,VWS V14.01,2013-02-23 13:50:00,
2013-02-23 08:55:00,55.6,54.8,29.92,NW,305,2.0,9.0,97,0.04,,---,0.32,VWS V14.01,2013-02-23 13:55:00,
2013-02-23 09:00:00,54.2,53.1,29.92,NNW,327,7.0,9.0,96,0.04,,---,0.32,VWS V14.01,2013-02-23 14:00:00,
2013-02-23 09:05:00,53.4,52.3,29.92,NNW,331,7.0,9.0,96,0.04,,---,0.32,VWS V14.01,2013-02-23 14:05:00,
2013-02-23 09:10:00,52.7,51.6,29.92,NW,322,3.0,9.0,96,0.05,,---,0.33,VWS V14.01,2013-02-23 14:10:00,
2013-02-23 09:15:00,52.1,51.0,29.92,NNW,333,7.0,10.0,96,0.05,,---,0.33,VWS V14.01,2013-02-23 14:15:00,
2013-02-23 09:20:00,51.7,50.6,29.92,NNW,338,5.0,7.0,96,0.06,,---,0.34,VWS V14.01,2013-02-23 14:20:00,
2013-02-23 09:25:00,51.6,50.5,29.91,NNW,345,6.0,8.0,96,0.05,,---,0.34,VWS V14.01,2013-02-23 14:25:00,
2013-02-23 09:30:00,51.5,50.4,29.91,NNW,344,7.0,8.0,96,0.05,,---,0.34,VWS V14.01,2013-02-23 14:30:00,
2013-02-23 09:35:00,51.6,50.8,29.91,North,350,9.0,9.0,97,0.04,,---,0.34,VWS V14.01,2013-02-23 14:35:00,
2013-02-23 09:40:00,51.5,50.4,29.90,North,351,7.0,10.0,96,0.04,,---,0.35,VWS V14.01,2013-02-23 14:40:00,
2013-02-23 09:45:00,51.5,50.7,29.90,North,350,5.0,7.0,97,0.04,,---,0.35,VWS V14.01,2013-02-23 14:45:00,
2013-02-23 09:50:00,51.5,50.7,29.90,North,350,3.0,6.0,97,0.04,,---,0.35,VWS V14.01,2013-02-23 14:50:00,
2013-02-23 09:55:00,51.7,50.9,29.89,North,350,2.0,6.0,97,0.03,,---,0.35,VWS V14.01,2013-02-23 14:55:00,
2013-02-23 10:00:00,52.0,51.2,29.89,North,350,5.0,7.0,97,0.03,,---,0.35,VWS V14.01,2013-02-23 15:00:00,
2013-02-23 10:05:00,52.1,51.3,29.89,North,355,7.0,7.0,97,0.03,,---,0.35,VWS V14.01,2013-02-23 15:05:00,
2013-02-23 10:10:00,52.1,51.3,29.89,NNW,344,5.0,10.0,97,0.04,,---,0.36,VWS V14.01,2013-02-23 15:10:00,
2013-02-23 10:15:00,51.9,51.1,29.89,NNW,344,6.0,10.0,97,0.03,,---,0.36,VWS V14.01,2013-02-23 15:15:00,
2013-02-23 10:20:00,51.8,51.0,29.89,NNW,346,7.0,9.0,97,0.02,,---,0.36,VWS V14.01,2013-02-23 15:20:00,
2013-02-23 10:25:00,51.7,50.6,29.89,NNW,348,6.0,10.0,96,0.02,,---,0.36,VWS V14.01,2013-02-23 15:25:00,
2013-02-23 10:30:00,51.3,50.2,29.89,North,351,7.0,10.0,96,0.02,,---,0.36,VWS V14.01,2013-02-23 15:30:00,
2013-02-23 10:35:00,50.7,49.6,29.89,NNW,343,6.0,11.0,96,0.02,,---,0.36,VWS V14.01,2013-02-23 15:35:00,
2013-02-23 10:40:00,50.3,49.2,29.89,NNW,344,5.0,11.0,96,0.02,,---,0.36,VWS V14.01,2013-02-23 15:40:00,
2013-02-23 10:45:00,50.3,49.2,29.89,North,350,7.0,10.0,96,0.01,,---,0.36,VWS V14.01,2013-02-23 15:45:00,
2013-02-23 10:50:00,50.5,49.7,29.89,North,355,6.0,9.0,97,0.01,,---,0.36,VWS V14.01,2013-02-23 15:50:00,
2013-02-23 10:55:00,50.7,49.9,29.88,North,5,6.0,10.0,97,0.01,,---,0.36,VWS V14.01,2013-02-23 15:55:00,
2013-02-23 11:00:00,50.7,49.9,29.88,North,360,5.0,10.0,97,0.01,,---,0.36,VWS V14.01,2013-02-23 16:00:00,
2013-02-23 11:05:00,50.5,49.4,29.88,North,360,4.0,10.0,96,0.02,,---,0.37,VWS V14.01,2013-02-23 16:05:00,
2013-02-23 11:10:00,50.3,49.2,29.87,North,5,7.0,9.0,96,0.01,,---,0.37,VWS V14.01,2013-02-23 16:10:00,
2013-02-23 11:15:00,49.8,48.7,29.87,North,9,7.0,11.0,96,0.01,,---,0.37,VWS V14.01,2013-02-23 16:15:00,
2013-02-23 11:20:00,49.7,48.6,29.87,North,11,10.0,11.0,96,0.01,,---,0.37,VWS V14.01,2013-02-23 16:20:00,
2013-02-23 11:25:00,49.6,48.8,29.87,North,11,5.0,9.0,97,0.01,,---,0.37,VWS V14.01,2013-02-23 16:25:00,
2013-02-23 11:30:00,49.3,48.2,29.87,NNE,13,5.0,9.0,96,0.02,,---,0.38,VWS V14.01,2013-02-23 16:30:00,
2013-02-23 11:35:00,49.3,48.2,29.87,North,5,6.0,8.0,96,0.02,,---,0.38,VWS V14.01,2013-02-23 16:35:00,
2013-02-23 11:40:00,49.2,48.1,29.88,North,355,4.0,6.0,96,0.03,,---,0.39,VWS V14.01,2013-02-23 16:40:00,
2013-02-23 11:45:00,49.3,48.5,29.88,North,355,2.0,6.0,97,0.04,,---,0.40,VWS V14.01,2013-02-23 16:45:00,
2013-02-23 11:50:00,49.3,48.2,29.88,North,5,3.0,6.0,96,0.04,,---,0.40,VWS V14.01,2013-02-23 16:50:00,
2013-02-23 11:55:00,49.2,48.1,29.86,North,5,5.0,6.0,96,0.05,,---,0.41,VWS V14.01,2013-02-23 16:55:00,
2013-02-23 12:00:00,49.0,48.2,29.86,North,11,4.0,7.0,97,0.06,,---,0.42,VWS V14.01,2013-02-23 17:00:00,
2013-02-23 12:05:00,48.8,48.0,29.86,NNE,15,6.0,8.0,97,0.07,,---,0.43,VWS V14.01,2013-02-23 17:05:00,
2013-02-23 12:10:00,48.8,48.0,29.85,NNE,15,6.0,7.0,97,0.06,,---,0.43,VWS V14.01,2013-02-23 17:10:00,
2013-02-23 12:15:00,48.7,47.9,29.85,NNE,16,4.0,7.0,97,0.07,,---,0.44,VWS V14.01,2013-02-23 17:15:00,
2013-02-23 12:20:00,48.8,48.0,29.85,NNE,17,3.0,4.0,97,0.07,,---,0.44,VWS V14.01,2013-02-23 17:20:00,
2013-02-23 12:25:00,48.9,48.1,29.84,North,5,5.0,6.0,97,0.08,,---,0.45,VWS V14.01,2013-02-23 17:25:00,
2013-02-23 12:30:00,49.0,48.2,29.84,North,360,4.0,7.0,97,0.08,,---,0.46,VWS V14.01,2013-02-23 17:30:00,
2013-02-23 12:35:00,49.1,48.3,29.84,North,355,6.0,7.0,97,0.08,,---,0.46,VWS V14.01,2013-02-23 17:35:00,
2013-02-23 12:40:00,49.2,48.4,29.84,North,9,1.0,8.0,97,0.08,,---,0.46,VWS V14.01,2013-02-23 17:40:00,
2013-02-23 12:45:00,49.4,48.6,29.84,NNW,341,0.0,4.0,97,0.08,,---,0.47,VWS V14.01,2013-02-23 17:45:00,
2013-02-23 12:50:00,49.5,48.7,29.84,NNW,345,3.0,4.0,97,0.07,,---,0.47,VWS V14.01,2013-02-23 17:50:00,
2013-02-23 12:55:00,49.5,48.7,29.81,NNE,21,0.0,6.0,97,0.07,,---,0.48,VWS V14.01,2013-02-23 17:55:00,
2013-02-23 13:00:00,49.6,48.8,29.81,NNE,21,0.0,0.0,97,0.06,,---,0.48,VWS V14.01,2013-02-23 18:00:00,
2013-02-23 13:05:00,49.6,48.8,29.81,NNE,21,0.0,3.0,97,0.06,,---,0.48,VWS V14.01,2013-02-23 18:05:00,
2013-02-23 13:10:00,49.5,48.7,29.81,NNE,21,0.0,0.0,97,0.05,,---,0.48,VWS V14.01,2013-02-23 18:10:00,
2013-02-23 13:15:00,49.7,48.9,29.81,WNW,282,0.0,9.0,97,0.05,,---,0.48,VWS V14.01,2013-02-23 18:15:00,
2013-02-23 13:20:00,49.8,49.0,29.81,WNW,282,0.0,0.0,97,0.05,,---,0.49,VWS V14.01,2013-02-23 18:20:00,
2013-02-23 13:25:00,49.8,49.0,29.82,WNW,282,0.0,0.0,97,0.05,,---,0.49,VWS V14.01,2013-02-23 18:25:00,
2013-02-23 13:30:00,49.8,49.0,29.82,WNW,282,0.0,0.0,97,0.05,,---,0.50,VWS V14.01,2013-02-23 18:30:00,
2013-02-23 13:35:00,50.0,49.2,29.82,WNW,282,0.0,4.0,97,0.04,,---,0.50,VWS V14.01,2013-02-23 18:35:00,
2013-02-23 13:40:00,50.0,49.2,29.81,WNW,282,0.0,0.0,97,0.04,,---,0.50,VWS V14.01,2013-02-23 18:40:00,
2013-02-23 13:45:00,50.0,49.2,29.81,WNW,282,0.0,2.0,97,0.04,,---,0.50,VWS V14.01,2013-02-23 18:45:00,
2013-02-23 13:50:00,50.1,49.3,29.81,WNW,282,0.0,0.0,97,0.04,,---,0.51,VWS V14.01,2013-02-23 18:50:00,
2013-02-23 13:55:00,50.1,49.3,29.81,WNW,282,0.0,0.0,97,0.04,,---,0.51,VWS V14.01,2013-02-23 18:55:00,
2013-02-23 14:00:00,50.2,49.4,29.81,WNW,282,0.0,0.0,97,0.04,,---,0.52,VWS V14.01,2013-02-23 19:00:00,
2013-02-23 14:05:00,50.2,49.4,29.81,WNW,282,0.0,0.0,97,0.04,,---,0.52,VWS V14.01,2013-02-23 19:05:00,
2013-02-23 14:10:00,50.1,49.3,29.81,WNW,282,0.0,0.0,97,0.04,,---,0.52,VWS V14.01,2013-02-23 19:10:00,
2013-02-23 14:15:00,50.1,49.3,29.81,WNW,282,0.0,0.0,97,0.04,,---,0.52,VWS V14.01,2013-02-23 19:15:00,
2013-02-23 14:20:00,50.1,49.3,29.81,WNW,282,0.0,0.0,97,0.03,,---,0.52,VWS V14.01,2013-02-23 19:20:00,
2013-02-23 14:25:00,50.1,49.3,29.81,WNW,282,0.0,0.0,97,0.03,,---,0.52,VWS V14.01,2013-02-23 19:25:00,
2013-02-23 14:30:00,50.3,49.5,29.81,West,281,4.0,5.0,97,0.03,,---,0.52,VWS V14.01,2013-02-23 19:30:00,
2013-02-23 14:35:00,50.4,49.6,29.81,West,277,7.0,9.0,97,0.02,,---,0.52,VWS V14.01,2013-02-23 19:35:00,
2013-02-23 14:40:00,50.6,49.8,29.82,West,273,5.0,9.0,97,0.02,,---,0.52,VWS V14.01,2013-02-23 19:40:00,
2013-02-23 14:45:00,50.5,49.7,29.82,West,263,7.0,10.0,97,0.02,,---,0.52,VWS V14.01,2013-02-23 19:45:00,
2013-02-23 14:50:00,50.4,49.6,29.82,West,273,4.0,10.0,97,0.01,,---,0.52,VWS V14.01,2013-02-23 19:50:00,
2013-02-23 14:55:00,50.4,49.6,29.82,West,275,6.0,10.0,97,0.01,,---,0.52,VWS V14.01,2013-02-23 19:55:00,
2013-02-23 15:00:00,50.3,49.5,29.82,West,278,5.0,9.0,97,0.01,,---,0.52,VWS V14.01,2013-02-23 20:00:00,
2013-02-23 15:05:00,50.3,49.5,29.82,West,279,3.0,3.0,97,0.00,,---,0.52,VWS V14.01,2013-02-23 20:05:00,
2013-02-23 15:10:00,50.4,49.6,29.82,WNW,284,4.0,5.0,97,0.00,,---,0.52,VWS V14.01,2013-02-23 20:10:00,
2013-02-23 15:15:00,50.5,49.7,29.82,WNW,284,0.0,0.0,97,0.00,,---,0.52,VWS V14.01,2013-02-23 20:15:00,
2013-02-23 15:20:00,50.7,49.9,29.82,WNW,284,0.0,0.0,97,0.00,,---,0.52,VWS V14.01,2013-02-23 20:20:00,
2013-02-23 15:24:00,50.9,50.1,29.81,WNW,284,0.0,4.0,97,0.00,,---,0.52,VWS V14.01,2013-02-23 20:24:00,
2013-02-23 15:29:00,50.9,50.1,29.81,WNW,284,0.0,1.0,97,0.00,,---,0.52,VWS V14.01,2013-02-23 20:29:00,
2013-02-23 15:34:00,50.9,50.1,29.81,WNW,284,0.0,0.0,97,0.00,,---,0.52,VWS V14.01,2013-02-23 20:34:00,
2013-02-23 15:39:00,50.9,50.1,29.81,WNW,284,0.0,0.0,97,0.00,,---,0.52,VWS V14.01,2013-02-23 20:39:00,
2013-02-23 15:44:00,50.8,50.0,29.81,WNW,284,0.0,0.0,97,0.00,,---,0.52,VWS V14.01,2013-02-23 20:44:00,
2013-02-23 15:50:00,51.0,50.2,29.81,WNW,284,0.0,3.0,97,0.00,,---,0.52,VWS V14.01,2013-02-23 20:50:00,
2013-02-23 15:55:00,50.9,50.1,29.81,WNW,284,0.0,3.0,97,0.00,,---,0.52,VWS V14.01,2013-02-23 20:55:00,
2013-02-23 15:59:00,50.8,50.0,29.81,WNW,284,0.0,0.0,97,0.00,,---,0.52,VWS V14.01,2013-02-23 20:59:00,
2013-02-23 16:05:00,50.8,50.0,29.81,WNW,284,0.0,0.0,97,0.00,,---,0.52,VWS V14.01,2013-02-23 21:05:00,
2013-02-23 16:09:00,50.8,50.0,29.79,WNW,284,0.0,0.0,97,0.00,,---,0.52,VWS V14.01,2013-02-23 21:09:00,
2013-02-23 16:14:00,50.7,49.9,29.79,WNW,284,0.0,0.0,97,0.00,,---,0.52,VWS V14.01,2013-02-23 21:14:00,
2013-02-23 16:19:00,50.8,50.0,29.79,WNW,284,0.0,0.0,97,0.00,,---,0.52,VWS V14.01,2013-02-23 21:19:00,
2013-02-23 16:24:00,51.1,50.3,29.79,WNW,284,0.0,0.0,97,0.00,,---,0.52,VWS V14.01,2013-02-23 21:24:00,
2013-02-23 16:29:00,51.1,50.3,29.79,WNW,284,0.0,0.0,97,0.00,,---,0.52,VWS V14.01,2013-02-23 21:29:00,
2013-02-23 16:34:00,51.0,50.2,29.79,WNW,284,4.0,4.0,97,0.00,,---,0.52,VWS V14.01,2013-02-23 21:34:00,
2013-02-23 16:39:00,51.0,50.2,29.79,WNW,284,0.0,0.0,97,0.00,,---,0.52,VWS V14.01,2013-02-23 21:39:00,
2013-02-23 16:44:00,51.1,50.3,29.79,WNW,284,3.0,4.0,97,0.00,,---,0.52,VWS V14.01,2013-02-23 21:44:00,
2013-02-23 16:49:00,51.4,50.6,29.79,WNW,284,2.0,2.0,97,0.00,,---,0.52,VWS V14.01,2013-02-23 21:49:00,
2013-02-23 16:54:00,51.2,50.4,29.79,WNW,284,2.0,2.0,97,0.00,,---,0.52,VWS V14.01,2013-02-23 21:54:00,
2013-02-23 16:59:00,51.4,50.6,29.79,WNW,284,3.0,3.0,97,0.00,,---,0.52,VWS V14.01,2013-02-23 21:59:00,
2013-02-23 17:04:00,51.4,50.6,29.79,WNW,284,0.0,4.0,97,0.00,,---,0.52,VWS V14.01,2013-02-23 22:04:00,
2013-02-23 17:09:00,51.2,50.4,29.79,WNW,284,4.0,5.0,97,0.00,,---,0.52,VWS V14.01,2013-02-23 22:09:00,
2013-02-23 17:14:00,51.0,50.2,29.79,WNW,284,0.0,3.0,97,0.00,,---,0.52,VWS V14.01,2013-02-23 22:14:00,
2013-02-23 17:19:00,50.9,50.1,29.79,WNW,284,0.0,0.0,97,0.00,,---,0.52,VWS V14.01,2013-02-23 22:19:00,
2013-02-23 17:24:00,50.9,50.1,29.79,WNW,284,2.0,3.0,97,0.00,,---,0.52,VWS V14.01,2013-02-23 22:24:00,
2013-02-23 17:29:00,51.0,50.2,29.79,WNW,284,2.0,3.0,97,0.00,,---,0.52,VWS V14.01,2013-02-23 22:29:00,
2013-02-23 17:34:00,51.1,50.3,29.79,WNW,284,0.0,0.0,97,0.00,,---,0.52,VWS V14.01,2013-02-23 22:34:00,
2013-02-23 17:39:00,51.1,50.3,29.79,WNW,284,1.0,4.0,97,0.00,,---,0.52,VWS V14.01,2013-02-23 22:39:00,
2013-02-23 17:44:00,51.1,50.3,29.79,WNW,284,0.0,2.0,97,0.00,,---,0.52,VWS V14.01,2013-02-23 22:44:00,
2013-02-23 17:49:00,51.1,50.3,29.79,WNW,284,2.0,3.0,97,0.00,,---,0.52,VWS V14.01,2013-02-23 22:49:00,
2013-02-23 17:54:00,51.0,50.2,29.81,WNW,284,4.0,4.0,97,0.00,,---,0.52,VWS V14.01,2013-02-23 22:54:00,
2013-02-23 17:59:00,51.0,50.2,29.81,WNW,284,4.0,4.0,97,0.00,,---,0.52,VWS V14.01,2013-02-23 22:59:00,
2013-02-23 18:04:00,51.0,50.2,29.81,WNW,285,0.0,0.0,97,0.00,,---,0.52,VWS V14.01,2013-02-23 23:04:00,
2013-02-23 18:09:00,50.9,50.1,29.80,WNW,285,0.0,0.0,97,0.00,,---,0.52,VWS V14.01,2013-02-23 23:09:00,
2013-02-23 18:14:00,50.8,50.0,29.80,WNW,285,0.0,4.0,97,0.00,,---,0.52,VWS V14.01,2013-02-23 23:14:00,
2013-02-23 18:19:00,50.7,49.9,29.80,WNW,289,4.0,5.0,97,0.00,,---,0.52,VWS V14.01,2013-02-23 23:19:00,
2013-02-23 18:24:00,50.6,49.8,29.80,WNW,289,0.0,2.0,97,0.00,,---,0.52,VWS V14.01,2013-02-23 23:24:00,
2013-02-23 18:29:00,50.5,49.7,29.80,WNW,290,1.0,1.0,97,0.00,,---,0.52,VWS V14.01,2013-02-23 23:29:00,
2013-02-23 18:34:00,50.5,49.7,29.80,NW,304,0.0,5.0,97,0.00,,---,0.52,VWS V14.01,2013-02-23 23:34:00,
2013-02-23 18:39:00,50.5,49.7,29.80,NW,306,1.0,5.0,97,0.00,,---,0.52,VWS V14.01,2013-02-23 23:39:00,
2013-02-23 18:44:00,50.6,49.8,29.80,NW,308,2.0,4.0,97,0.00,,---,0.52,VWS V14.01,2013-02-23 23:44:00,
2013-02-23 18:49:00,50.6,49.8,29.80,NW,308,0.0,0.0,97,0.00,,---,0.52,VWS V14.01,2013-02-23 23:49:00,
2013-02-23 18:54:00,50.6,49.8,29.79,NW,317,4.0,4.0,97,0.00,,---,0.52,VWS V14.01,2013-02-23 23:54:00,
2013-02-23 18:59:00,50.6,49.8,29.79,NW,317,3.0,4.0,97,0.00,,---,0.52,VWS V14.01,2013-02-23 23:59:00,
2013-02-23 19:04:00,50.3,49.5,29.79,NW,319,2.0,5.0,97,0.00,,---,0.52,VWS V14.01,2013-02-24 00:04:00,
2013-02-23 19:09:00,50.3,49.5,29.79,NW,319,0.0,3.0,97,0.00,,---,0.52,VWS V14.01,2013-02-24 00:09:00,
2013-02-23 19:14:00,50.3,49.5,29.79,NW,319,2.0,3.0,97,0.00,,---,0.52,VWS V14.01,2013-02-24 00:14:00,
2013-02-23 19:19:00,50.2,49.4,29.79,NW,319,0.0,3.0,97,0.00,,---,0.52,VWS V14.01,2013-02-24 00:19:00,
2013-02-23 19:24:00,50.1,49.3,29.79,NW,319,0.0,3.0,97,0.00,,---,0.52,VWS V14.01,2013-02-24 00:24:00,
2013-02-23 19:29:00,50.1,49.3,29.79,NW,319,0.0,0.0,97,0.00,,---,0.52,VWS V14.01,2013-02-24 00:29:00,
2013-02-23 19:34:00,50.1,49.3,29.79,NW,319,0.0,1.0,97,0.00,,---,0.52,VWS V14.01,2013-02-24 00:34:00,
2013-02-23 19:39:00,50.0,49.2,29.81,NW,319,2.0,3.0,97,0.00,,---,0.52,VWS V14.01,2013-02-24 00:39:00,
2013-02-23 19:44:00,50.0,49.2,29.81,NW,319,0.0,0.0,97,0.00,,---,0.52,VWS V14.01,2013-02-24 00:44:00,
2013-02-23 19:49:00,50.0,49.2,29.81,NW,319,0.0,0.0,97,0.00,,---,0.52,VWS V14.01,2013-02-24 00:49:00,
2013-02-23 19:54:00,49.8,49.0,29.80,NW,319,0.0,0.0,97,0.00,,---,0.52,VWS V14.01,2013-02-24 00:54:00,
2013-02-23 19:59:00,49.7,48.9,29.80,NNW,327,3.0,5.0,97,0.00,,---,0.52,VWS V14.01,2013-02-24 00:59:00,
2013-02-23 20:04:00,49.6,48.8,29.80,NNW,346,4.0,8.0,97,0.00,,---,0.52,VWS V14.01,2013-02-24 01:04:00,
2013-02-23 20:09:00,49.2,48.4,29.81,NNW,336,6.0,12.0,97,0.00,,---,0.52,VWS V14.01,2013-02-24 01:09:00,
2013-02-23 20:14:00,48.9,48.1,29.81,North,355,9.0,15.0,97,0.00,,---,0.52,VWS V14.01,2013-02-24 01:14:00,
2013-02-23 20:19:00,48.4,47.3,29.81,North,355,7.0,15.0,96,0.00,,---,0.52,VWS V14.01,2013-02-24 01:19:00,
2013-02-23 20:24:00,48.0,46.9,29.82,NW,319,4.0,5.0,96,0.00,,---,0.52,VWS V14.01,2013-02-24 01:24:00,
2013-02-23 20:29:00,47.7,46.9,29.82,NW,319,0.0,3.0,97,0.00,,---,0.52,VWS V14.01,2013-02-24 01:29:00,
2013-02-23 20:34:00,47.8,47.0,29.82,NW,316,0.0,3.0,97,0.00,,---,0.52,VWS V14.01,2013-02-24 01:34:00,
2013-02-23 20:39:00,48.1,47.3,29.82,West,274,0.0,4.0,97,0.00,,---,0.52,VWS V14.01,2013-02-24 01:39:00,
2013-02-23 20:44:00,48.2,47.4,29.82,West,274,2.0,2.0,97,0.00,,---,0.52,VWS V14.01,2013-02-24 01:44:00,
2013-02-23 20:49:00,48.2,47.4,29.82,West,274,0.0,0.0,97,0.00,,---,0.52,VWS V14.01,2013-02-24 01:49:00,
2013-02-23 20:54:00,48.2,47.4,29.81,West,273,0.0,0.0,97,0.00,,---,0.52,VWS V14.01,2013-02-24 01:54:00,
2013-02-23 20:59:00,48.2,47.4,29.81,West,273,0.0,0.0,97,0.00,,---,0.52,VWS V14.01,2013-02-24 01:59:00,
2013-02-23 21:04:00,48.2,47.4,29.81,West,273,0.0,0.0,97,0.00,,---,0.52,VWS V14.01,2013-02-24 02:04:00,
2013-02-23 21:09:00,48.2,47.4,29.81,West,273,0.0,0.0,97,0.00,,---,0.52,VWS V14.01,2013-02-24 02:09:00,
2013-02-23 21:14:00,48.2,47.4,29.81,West,273,0.0,0.0,97,0.00,,---,0.52,VWS V14.01,2013-02-24 02:14:00,
2013-02-23 21:19:00,48.6,47.8,29.81,WSW,237,0.0,0.0,97,0.00,,---,0.52,VWS V14.01,2013-02-24 02:19:00,
2013-02-23 21:24:00,48.6,47.8,29.81,WSW,237,0.0,0.0,97,0.00,,---,0.52,VWS V14.01,2013-02-24 02:24:00,
2013-02-23 21:29:00,48.7,47.9,29.81,WSW,237,0.0,0.0,97,0.00,,---,0.52,VWS V14.01,2013-02-24 02:29:00,
2013-02-23 21:34:00,48.7,47.9,29.81,WSW,237,3.0,3.0,97,0.00,,---,0.52,VWS V14.01,2013-02-24 02:34:00,
2013-02-23 21:39:00,48.9,48.1,29.81,WSW,237,3.0,7.0,97,0.00,,---,0.52,VWS V14.01,2013-02-24 02:39:00,
2013-02-23 21:44:00,49.0,48.2,29.81,WSW,237,0.0,0.0,97,0.00,,---,0.52,VWS V14.01,2013-02-24 02:44:00,
2013-02-23 21:49:00,49.1,48.3,29.81,WSW,246,3.0,6.0,97,0.00,,---,0.52,VWS V14.01,2013-02-24 02:49:00,
2013-02-23 21:54:00,49.2,48.4,29.84,WSW,246,4.0,4.0,97,0.00,,---,0.52,VWS V14.01,2013-02-24 02:54:00,
2013-02-23 21:59:00,49.2,48.4,29.84,NNW,345,4.0,7.0,97,0.00,,---,0.52,VWS V14.01,2013-02-24 02:59:00,
2013-02-23 22:04:00,49.2,48.4,29.84,NW,316,4.0,6.0,97,0.00,,---,0.52,VWS V14.01,2013-02-24 03:04:00,
2013-02-23 22:09:00,48.9,48.1,29.82,NNW,342,7.0,10.0,97,0.00,,---,0.52,VWS V14.01,2013-02-24 03:09:00,
2013-02-23 22:14:00,48.8,48.0,29.82,NW,318,6.0,11.0,97,0.00,,---,0.52,VWS V14.01,2013-02-24 03:14:00,
2013-02-23 22:19:00,48.5,47.7,29.82,NW,306,7.0,9.0,97,0.00,,---,0.52,VWS V14.01,2013-02-24 03:19:00,
2013-02-23 22:24:00,48.4,47.6,29.83,WNW,298,1.0,7.0,97,0.00,,---,0.52,VWS V14.01,2013-02-24 03:24:00,
2013-02-23 22:29:00,48.2,47.4,29.83,WNW,298,3.0,5.0,97,0.00,,---,0.52,VWS V14.01,2013-02-24 03:29:00,
2013-02-23 22:34:00,48.2,47.4,29.83,WNW,298,3.0,3.0,97,0.00,,---,0.52,VWS V14.01,2013-02-24 03:34:00,
2013-02-23 22:39:00,48.3,47.5,29.82,WNW,297,1.0,3.0,97,0.00,,---,0.52,VWS V14.01,2013-02-24 03:39:00,
2013-02-23 22:44:00,48.3,47.5,29.82,WNW,297,0.0,0.0,97,0.00,,---,0.52,VWS V14.01,2013-02-24 03:44:00,
2013-02-23 22:49:00,48.4,47.6,29.82,WNW,296,0.0,4.0,97,0.00,,---,0.52,VWS V14.01,2013-02-24 03:49:00,
2013-02-23 22:54:00,48.3,47.5,29.82,WNW,296,0.0,0.0,97,0.00,,---,0.52,VWS V14.01,2013-02-24 03:54:00,
2013-02-23 22:59:00,48.2,47.4,29.82,WNW,296,0.0,0.0,97,0.00,,---,0.52,VWS V14.01,2013-02-24 03:59:00,
2013-02-23 23:04:00,48.1,47.3,29.82,WNW,296,0.0,0.0,97,0.00,,---,0.52,VWS V14.01,2013-02-24 04:04:00,
2013-02-23 23:09:00,48.1,47.3,29.81,WNW,296,0.0,0.0,97,0.00,,---,0.52,VWS V14.01,2013-02-24 04:09:00,
2013-02-23 23:14:00,48.2,47.4,29.81,WNW,296,0.0,0.0,97,0.00,,---,0.52,VWS V14.01,2013-02-24 04:14:00,
2013-02-23 23:19:00,48.3,47.5,29.81,WNW,296,0.0,0.0,97,0.00,,---,0.52,VWS V14.01,2013-02-24 04:19:00,
2013-02-23 23:24:00,48.3,47.5,29.81,WNW,296,0.0,0.0,97,0.00,,---,0.52,VWS V14.01,2013-02-24 04:24:00,
2013-02-23 23:29:00,48.4,47.6,29.81,WNW,296,0.0,1.0,97,0.00,,---,0.52,VWS V14.01,2013-02-24 04:29:00,
2013-02-23 23:34:00,48.4,47.6,29.81,WNW,296,0.0,3.0,97,0.00,,---,0.52,VWS V14.01,2013-02-24 04:34:00,
2013-02-23 23:39:00,48.5,47.7,29.80,WNW,296,4.0,5.0,97,0.00,,---,0.52,VWS V14.01,2013-02-24 04:39:00,
2013-02-23 23:44:00,48.4,47.6,29.80,WNW,296,0.0,4.0,97,0.00,,---,0.52,VWS V14.01,2013-02-24 04:44:00,
2013-02-23 23:49:00,48.4,47.6,29.80,WNW,296,2.0,3.0,97,0.00,,---,0.52,VWS V14.01,2013-02-24 04:49:00,
2013-02-23 23:54:00,48.3,47.5,29.81,WNW,296,0.0,3.0,97,0.00,,---,0.52,VWS V14.01,2013-02-24 04:54:00,
2013-02-23 23:59:00,48.3,47.5,29.81,WNW,296,0.0,2.0,97,0.00,,---,0.52,VWS V14.01,2013-02-24 04:59:00,